Location: Basse Occidentale du Courleau
(48.3833°N, 4.8333°W)
Time: 09:45:44
(UTC+00:00)

Cosmos 2344 - Pass Details

Date: 05 July 2020
Orbit: 1249 x 2993 km, 63.3° (Epoch: 07 August)

Event Time Altitude Azimuth Distance (km) Brightness Sun altitude
Exits shadow 22:16:03 17° 160° (SSE) 2,747 4.7 -13.4°
Maximum altitude 22:20:33 30° 111° (ESE) 2,087 4.3 -13.8°
Drops below altitude 10° 22:27:03 10° 54° (NE) 3,380 5.9 -14.3°
Sets 22:30:26 0° 44° (NE) 4,496 6.7 -14.5°
